Voltar ao catálogo

MAQSAT B

AtivoCiênciaHEO
NORAD 25024·PAYLOAD·🇪🇺 EU

Lançado Oct 30, 1997 de Guiana Space Centre

Loading…

Próximas Passagens (próximas 24 horas)

TLE

AtualizadoSource: Space-Track

Época: Sep 14, 2026, 14:04 UTC

1 25024U 97066B   26257.58644508 -.00000019  00000-0  47936-3 0  9996
2 25024   7.8281 290.7213 6522529 248.4327 344.2991  3.08960228325804

Acompanhe MAQSAT B em tempo real com AllMySat

Download on the App Store